Content
SEND FEEDBACK

United States of America Flag

CAPULIN VOLCANO NATIONAL MONUMENT, NEW MEXICO


Home > North America > United States > New Mexico
Elevation: 7290 feet     Latitude: 36 47N     Longitude: 103 58W

WEATHER
 
SELECT A DAY
Number of Records: 169,325;   Date Range: 8/27/98 - 3/22/16
 
SHARE

PRINT THIS DATA

[ ← Previous Day ]
WEATHER ALMANAC - FEBRUARY 5, 2013
[ Next Day → ]
[ °C ]   °F
Weather ElementAverageHighLow
Temperature38.8 °F57.9 °F (2:53 pm)21.9 °F (4:53 am)
Dewpoint10.7 °F14 °F (9:53 pm)7 °F (6:53 am)
Humidity36.1 %60 % (1:53 am)14 % (2:53 pm)
Barometer29.96 in30.04 in (7:53 am)29.88 in (3:53 am)
Wind Speed8.5 mph17.3 mph (4:53 pm)
Wind Gust25.3 mph (3:53 pm)
Weather ElementAverage
Visibility10 mi
Wind DirectionESE (117 °)

Weather ElementTotal
Precipitation---
Heating Degree Days25.1 (Base 65)
Averaged from 23 records on February 5, 2013
WEATHER CONDITIONS BREAKOUT
WIND DIRECTION BREAKOUT
WEATHER BY HOUR - FEBRUARY 5, 2013
[ °C ]   °F
Local TimeTemperatureDewpointHumidityBarometerVisibilityWind DirectionWind SpeedGust SpeedPrecipitationEventsConditions
1:53 AM23.0 °F10.9 °F60 %29.89 in10.0 miNNE (30°)3.5 mphClear
2:53 AM23.0 °F10.0 °F58 %29.89 in10.0 miENE (60°)8.1 mphClear
3:53 AM25.0 °F10.9 °F55 %29.88 in10.0 miNE (40°)8.1 mphClear
4:53 AM21.9 °F10.0 °F60 %29.94 in10.0 miENE (60°)11.5 mphClear
5:53 AM21.9 °F8.1 °F55 %29.98 in10.0 miNE (40°)9.2 mphClear
6:53 AM32.0 °F7.0 °F35 %29.97 in10.0 miNNE (30°)5.8 mphClear
7:53 AM32.0 °F10.0 °F40 %30.04 in10.0 miENE (60°)9.2 mphClear
8:53 AM39.9 °F12.0 °F32 %30.04 in10.0 miCalmClear
9:53 AM48.9 °F10.9 °F22 %30.00 in10.0 miESE (110°)6.9 mphClear
10:53 AM53.1 °F10.0 °F18 %29.99 in10.0 miEast (90°)10.4 mphClear
11:53 AM55.0 °F9.0 °F16 %29.97 in10.0 miVariable5.8 mphClear
12:53 PM57.0 °F9.0 °F15 %29.95 in10.0 miVariable4.6 mphClear
1:53 PM57.0 °F9.0 °F15 %29.93 in10.0 miSouth (190°)12.7 mphClear
2:53 PM57.9 °F9.0 °F14 %29.91 in10.0 miSouth (170°)13.8 mph20.7 mphClear
3:53 PM55.9 °F9.0 °F15 %29.91 in10.0 miSouth (190°)16.1 mph25.3 mphClear
4:53 PM51.1 °F10.9 °F20 %29.95 in10.0 miSSE (160°)17.3 mphClear
5:53 PM43.0 °F12.9 °F30 %30.01 in10.0 miSSE (160°)9.2 mphClear
6:53 PM37.0 °F12.0 °F36 %30.01 in10.0 miWSW (250°)6.9 mphClear
7:53 PM34.0 °F12.9 °F42 %30.04 in10.0 miWest (260°)10.4 mphClear
8:53 PM33.1 °F12.9 °F43 %30.00 in10.0 miWest (260°)9.2 mphClear
9:53 PM32.0 °F14.0 °F48 %29.97 in10.0 miWest (260°)6.9 mphClear
10:53 PM34.0 °F14.0 °F44 %29.93 in10.0 miSW (230°)4.6 mphClear
11:53 PM25.0 °F12.0 °F58 %29.94 in10.0 miNE (40°)5.8 mphClear
Hourly data recorded from KRTN, located miles away from Capulin Volcano National Monument, New Mexico




STORIES FROM OUR PARTNERS